Language: 


Des rapports , des résumés tant et plus, au choix de chacun....


Données Historiques de Météogheer
Journalier Rapport pour Février 17, 2018 Unitée:  Impériale    Métrique   Les deux
Suivant Jour »
Journalier Hebdomadaire Mensuel Annuel Sur mesure
  Max: Min: Moyenne:
Température: 51.6 °F 28.9 °F 38.8 °F
Point de rosée: 39.2 °F 24.8 °F 32.4 °F
Humidité: 89% 52% 78%
Vent: 7.4mph 0mph 0.9mph
Rafales: 8.1mph - -
Vent- - SSE
Pression: 30.2 in 30.1 in -
Pluie: 0 in    
Historical Graphs
 
 
Données tabulaires pour Février 17, 2018
Heure Température Point de rosée Pression Vent Vent Rafales Humidité Pluie Taux (Horaire) Conditions
00:02 35.1 °F 32 °F 30.2 in Calm     86% 0 in
00:07 35.2 °F 32 °F 30.2 in Calm     86% 0 in
00:12 35.4 °F 32 °F 30.2 in Calm     86% 0 in
00:17 35.4 °F 32 °F 30.2 in Calm     86% 0 in
00:22 35.6 °F 32 °F 30.2 in Calm     86% 0 in
00:27 35.6 °F 32 °F 30.2 in Calm     86% 0 in
00:32 35.6 °F 32 °F 30.2 in NNE 2.9 mph 2.9 mph 86% 0 in
00:37 35.4 °F 32 °F 30.2 in Calm   4.3 mph 86% 0 in
00:43 35.4 °F 32 °F 30.2 in Calm   4.3 mph 86% 0 in
00:48 35.4 °F 32 °F 30.2 in Calm     86% 0 in
00:53 35.4 °F 32 °F 30.2 in Calm   1.6 mph 86% 0 in
00:58 35.4 °F 32 °F 30.2 in Calm   1.6 mph 86% 0 in
01:03 35.2 °F 32 °F 30.2 in Calm     86% 0 in
01:08 35.2 °F 32 °F 30.2 in Calm     86% 0 in
01:13 35.2 °F 32 °F 30.2 in Calm     86% 0 in
01:18 35.1 °F 32 °F 30.2 in Calm   0.9 mph 86% 0 in
01:23 34.9 °F 32 °F 30.2 in Calm   2.9 mph 86% 0 in
01:28 34.9 °F 32 °F 30.2 in Calm   2.9 mph 86% 0 in
01:33 34.9 °F 32 °F 30.2 in Calm   1.6 mph 86% 0 in
01:38 34.7 °F 32 °F 30.2 in Calm     86% 0 in
01:43 34.7 °F 32 °F 30.2 in Calm   1.6 mph 86% 0 in
01:48 34.7 °F 32 °F 30.2 in Calm   1.6 mph 86% 0 in
01:53 34.7 °F 32 °F 30.2 in NNE 2.7 mph 3.1 mph 86% 0 in
01:58 34.7 °F 32 °F 30.2 in Calm   3.1 mph 86% 0 in
02:03 34.7 °F 32 °F 30.2 in Calm   1.3 mph 86% 0 in
02:08 34.7 °F 32 °F 30.2 in Calm   1.3 mph 87% 0 in
02:13 34.7 °F 32 °F 30.2 in Calm   2.9 mph 87% 0 in
02:18 34.7 °F 32 °F 30.2 in Calm   4 mph 87% 0 in
02:23 34.7 °F 32 °F 30.2 in Calm   4 mph 87% 0 in
02:28 34.7 °F 32 °F 30.2 in Calm   3.8 mph 87% 0 in
02:33 34.5 °F 32 °F 30.2 in Calm   3.1 mph 87% 0 in
02:38 34.5 °F 32 °F 30.2 in Calm     87% 0 in
02:43 34.5 °F 32 °F 30.2 in Calm   2.5 mph 87% 0 in
02:49 34.5 °F 32 °F 30.2 in NE 3.6 mph 4.3 mph 87% 0 in
02:54 34.7 °F 32 °F 30.2 in Calm   4.3 mph 88% 0 in
02:59 34.9 °F 32 °F 30.2 in Calm   3.8 mph 88% 0 in
03:04 34.9 °F 32 °F 30.2 in Calm   4.3 mph 88% 0 in
03:09 34.9 °F 32 °F 30.2 in Calm   4.3 mph 88% 0 in
03:14 34.9 °F 32 °F 30.1 in Calm   4.3 mph 88% 0 in
03:19 34.9 °F 32 °F 30.1 in Calm   4.3 mph 88% 0 in
03:24 34.9 °F 32 °F 30.1 in NNE 3.1 mph 4.7 mph 88% 0 in
03:29 34.9 °F 32 °F 30.2 in Calm   4.7 mph 88% 0 in
03:34 34.9 °F 32 °F 30.2 in Calm   4 mph 88% 0 in
03:39 34.9 °F 32 °F 30.2 in Calm   3.8 mph 88% 0 in
03:44 35.1 °F 32 °F 30.2 in Calm   3.8 mph 88% 0 in
03:49 35.1 °F 32 °F 30.2 in Calm   3.4 mph 88% 0 in
03:54 34.9 °F 32 °F 30.2 in Calm   1.1 mph 87% 0 in
03:59 34.9 °F 32 °F 30.2 in Calm     87% 0 in
04:04 34.9 °F 32 °F 30.2 in Calm     87% 0 in
04:09 34.9 °F 32 °F 30.2 in Calm     87% 0 in
04:14 34.9 °F 32 °F 30.1 in Calm   3.8 mph 87% 0 in
04:19 34.7 °F 32 °F 30.1 in Calm   3.8 mph 87% 0 in
04:24 34.7 °F 32 °F 30.1 in Calm   3.8 mph 87% 0 in
04:29 34.7 °F 32 °F 30.1 in Calm   3.8 mph 87% 0 in
04:34 34.7 °F 32 °F 30.1 in Calm   3.8 mph 87% 0 in
04:39 34.5 °F 32 °F 30.1 in Calm   2.2 mph 87% 0 in
04:44 34.5 °F 32 °F 30.1 in NE 2.7 mph 4 mph 88% 0 in
04:49 34.7 °F 32 °F 30.1 in Calm   4 mph 88% 0 in
04:55 34.7 °F 32 °F 30.1 in Calm   4 mph 88% 0 in
05:00 34.9 °F 32 °F 30.1 in NNE 4 mph 4 mph 88% 0 in
05:05 34.9 °F 32 °F 30.1 in North 2 mph 4.7 mph 88% 0 in
05:10 34.7 °F 32 °F 30.1 in North 3.1 mph 5.4 mph 88% 0 in
05:15 34.7 °F 32 °F 30.1 in Calm   5.4 mph 88% 0 in
05:20 34.9 °F 32 °F 30.1 in Calm   5.4 mph 88% 0 in
05:25 34.7 °F 32 °F 30.1 in NNE 6.3 mph 6.3 mph 88% 0 in
05:30 34.7 °F 32 °F 30.1 in NNE 5.4 mph 6.3 mph 88% 0 in
05:35 34.7 °F 32 °F 30.1 in NNE 5.6 mph 6.3 mph 88% 0 in
05:40 34.5 °F 32 °F 30.1 in North 3.8 mph 6.3 mph 88% 0 in
05:45 34.5 °F 32 °F 30.1 in North 5.4 mph 5.6 mph 88% 0 in
05:50 34.5 °F 32 °F 30.1 in NE 4 mph 5.4 mph 88% 0 in
05:55 34.5 °F 32 °F 30.1 in NNE 2.9 mph 5.4 mph 88% 0 in
06:00 34.3 °F 32 °F 30.1 in Calm   4 mph 88% 0 in
06:05 34.3 °F 32 °F 30.1 in Calm   3.8 mph 88% 0 in
06:10 34.3 °F 32 °F 30.1 in Calm     87% 0 in
06:15 34.2 °F 32 °F 30.1 in Calm   4 mph 87% 0 in
06:21 34.2 °F 32 °F 30.1 in Calm   4 mph 88% 0 in
06:26 34 °F 30.2 °F 30.1 in NNE 2 mph 3.6 mph 88% 0 in
06:31 34 °F 30.2 °F 30.1 in Calm   3.6 mph 88% 0 in
06:36 34 °F 30.2 °F 30.1 in North 2.7 mph 4.3 mph 88% 0 in
06:41 34 °F 30.2 °F 30.1 in Calm   4.3 mph 88% 0 in
06:46 34 °F 30.2 °F 30.1 in NNE 2.9 mph 4.7 mph 88% 0 in
06:51 34 °F 30.2 °F 30.1 in North 4.3 mph 5.6 mph 88% 0 in
06:56 34 °F 30.2 °F 30.1 in Calm   5.6 mph 88% 0 in
07:01 34.2 °F 32 °F 30.1 in Calm   4.9 mph 88% 0 in
07:06 34.2 °F 32 °F 30.1 in North 1.3 mph 4.9 mph 88% 0 in
07:11 34 °F 30.2 °F 30.1 in North 1.1 mph 4.9 mph 88% 0 in
07:16 34 °F 30.2 °F 30.1 in North 3.6 mph 4.9 mph 88% 0 in
07:21 34.2 °F 32 °F 30.1 in NNE 3.6 mph 5.4 mph 89% 0 in
07:26 34.2 °F 32 °F 30.1 in NE 4 mph 6.5 mph 89% 0 in
07:31 34.2 °F 32 °F 30.1 in NNE 3.8 mph 6.5 mph 89% 0 in
07:36 34.2 °F 32 °F 30.1 in NNE 3.4 mph 6 mph 89% 0 in
07:41 34.2 °F 32 °F 30.1 in North 1.6 mph 5.6 mph 89% 0 in
07:46 34.2 °F 32 °F 30.1 in North 4.3 mph 4.7 mph 89% 0 in
07:51 34.3 °F 32 °F 30.1 in Calm   6 mph 89% 0 in
07:56 34.3 °F 32 °F 30.1 in NNE 5.4 mph 6.5 mph 89% 0 in
08:01 34.5 °F 32 °F 30.1 in North 3.6 mph 6.5 mph 89% 0 in
08:06 34.5 °F 32 °F 30.1 in North 2 mph 5.8 mph 89% 0 in
08:11 34.5 °F 32 °F 30.1 in North 3.6 mph 5.6 mph 89% 0 in
08:16 34.5 °F 32 °F 30.1 in North 3.1 mph 5.8 mph 88% 0 in
08:21 34.5 °F 32 °F 30.1 in NE 3.6 mph 6.3 mph 88% 0 in
08:26 34.5 °F 32 °F 30.1 in NE 4.7 mph 6.3 mph 88% 0 in
08:31 34.5 °F 32 °F 30.1 in NNE 4 mph 6 mph 88% 0 in
08:36 34.3 °F 32 °F 30.1 in NNW 3.6 mph 6 mph 88% 0 in
08:41 34.5 °F 32 °F 30.1 in NNE 3.8 mph 6 mph 88% 0 in
08:46 34.5 °F 32 °F 30.1 in NNE 1.1 mph 6 mph 88% 0 in
08:51 34.5 °F 32 °F 30.1 in NNE 3.6 mph 4.9 mph 88% 0 in
08:56 34.5 °F 32 °F 30.1 in NE 2.7 mph 6.5 mph 88% 0 in
09:01 34.5 °F 32 °F 30.1 in Calm   6.5 mph 88% 0 in
09:06 34.7 °F 32 °F 30.1 in Calm   4.7 mph 89% 0 in
09:12 34.7 °F 32 °F 30.1 in Calm   4.3 mph 89% 0 in
09:17 34.9 °F 32 °F 30.1 in Calm   3.8 mph 89% 0 in
09:22 35.1 °F 32 °F 30.1 in North 3.6 mph 5.6 mph 89% 0 in
09:27 35.1 °F 32 °F 30.1 in NE 4.3 mph 6.3 mph 89% 0 in
09:32 35.2 °F 32 °F 30.1 in NNE 4 mph 6.3 mph 89% 0 in
09:37 35.4 °F 33.8 °F 30.1 in Calm   6 mph 89% 0 in
09:42 35.6 °F 33.8 °F 30.1 in NNE 3.8 mph 6.3 mph 88% 0 in
09:47 35.8 °F 33.8 °F 30.1 in NE 3.6 mph 6.3 mph 88% 0 in
09:52 36 °F 33.8 °F 30.1 in NE 1.6 mph 4.9 mph 88% 0 in
09:57 36.1 °F 33.8 °F 30.1 in NE 3.1 mph 4.9 mph 88% 0 in
10:02 36.3 °F 33.8 °F 30.1 in Calm   4.3 mph 88% 0 in
10:07 36.3 °F 33.8 °F 30.1 in Calm   3.1 mph 88% 0 in
10:12 36.5 °F 33.8 °F 30.1 in Calm   2 mph 88% 0 in
10:17 36.7 °F 33.8 °F 30.2 in North 2.9 mph 2.9 mph 88% 0 in
10:22 36.7 °F 33.8 °F 30.2 in NNE 2.7 mph 3.6 mph 88% 0 in
10:27 37 °F 33.8 °F 30.2 in NE 3.4 mph 4 mph 88% 0 in
10:32 37.2 °F 33.8 °F 30.2 in North 6 mph 6 mph 88% 0 in
10:37 37.6 °F 33.8 °F 30.2 in North 7.4 mph 8.1 mph 87% 0 in
10:42 37.9 °F 35.6 °F 30.2 in NE 4.9 mph 8.1 mph 87% 0 in
10:48 38.3 °F 35.6 °F 30.2 in NE 1.6 mph 7.8 mph 86% 0 in
10:53 38.7 °F 35.6 °F 30.2 in NNE 1.6 mph 7.8 mph 86% 0 in
10:58 39 °F 35.6 °F 30.2 in ENE 5.8 mph 6.3 mph 85% 0 in
11:03 39.2 °F 35.6 °F 30.2 in ENE 4.3 mph 6.3 mph 84% 0 in
11:08 39.4 °F 35.6 °F 30.2 in Calm   6.3 mph 84% 0 in
11:13 39.4 °F 35.6 °F 30.2 in Calm   5.4 mph 84% 0 in
11:18 39.7 °F 35.6 °F 30.2 in NE 1.3 mph 4.9 mph 83% 0 in
11:23 39.9 °F 35.6 °F 30.2 in Calm   5.6 mph 82% 0 in
11:28 40.5 °F 35.6 °F 30.2 in Calm   5.6 mph 82% 0 in
11:33 41.2 °F 35.6 °F 30.2 in ESE 2.5 mph 4 mph 81% 0 in
11:38 42.1 °F 37.4 °F 30.2 in Calm   4 mph 81% 0 in
11:43 42.8 °F 37.4 °F 30.2 in Calm   4 mph 79% 0 in
11:48 43.5 °F 37.4 °F 30.2 in ESE 0.9 mph 2.2 mph 78% 0 in
11:53 44.1 °F 37.4 °F 30.2 in Calm   1.3 mph 78% 0 in
11:58 44.2 °F 37.4 °F 30.2 in Calm   1.1 mph 77% 0 in
12:03 44.8 °F 37.4 °F 30.2 in Calm   1.6 mph 75% 0 in
12:08 45.5 °F 39.2 °F 30.2 in Calm   1.6 mph 75% 0 in
12:13 46 °F 37.4 °F 30.2 in Calm     74% 0 in
12:18 46.2 °F 37.4 °F 30.2 in Calm   3.6 mph 73% 0 in
12:23 46 °F 37.4 °F 30.2 in Calm   3.6 mph 72% 0 in
12:28 46 °F 37.4 °F 30.2 in Calm   1.6 mph 72% 0 in
12:33 46.4 °F 37.4 °F 30.2 in Calm   0.9 mph 70% 0 in
12:38 46.9 °F 39.2 °F 30.2 in Calm   1.6 mph 71% 0 in
12:43 47.3 °F 37.4 °F 30.2 in Calm   3.6 mph 69% 0 in
12:49 47.5 °F 37.4 °F 30.2 in Calm   3.6 mph 68% 0 in
12:54 48 °F 37.4 °F 30.2 in Calm   1.6 mph 67% 0 in
12:59 48.2 °F 37.4 °F 30.2 in Calm   1.6 mph 67% 0 in
13:04 47.8 °F 37.4 °F 30.2 in Calm   0.9 mph 67% 0 in
13:09 47.7 °F 37.4 °F 30.2 in Calm   4.7 mph 66% 0 in
13:14 48 °F 37.4 °F 30.2 in Calm   4.7 mph 67% 0 in
13:19 48.2 °F 37.4 °F 30.2 in Calm   4.9 mph 66% 0 in
13:24 48.2 °F 37.4 °F 30.2 in NNE 4 mph 4.9 mph 65% 0 in
13:29 48.2 °F 37.4 °F 30.2 in NE 4.7 mph 6 mph 65% 0 in
13:34 48.2 °F 37.4 °F 30.2 in Calm   6.5 mph 65% 0 in
13:39 48.2 °F 37.4 °F 30.2 in NNW 1.6 mph 6.5 mph 64% 0 in
13:44 48.4 °F 37.4 °F 30.2 in Calm   6.3 mph 65% 0 in
13:49 48.6 °F 37.4 °F 30.2 in NE 1.1 mph 4.9 mph 65% 0 in
13:54 48.9 °F 37.4 °F 30.2 in NE 2.7 mph 4.3 mph 65% 0 in
13:59 49.1 °F 39.2 °F 30.2 in Calm   4.3 mph 65% 0 in
14:04 49.5 °F 37.4 °F 30.2 in NE 1.3 mph 4.3 mph 64% 0 in
14:09 49.6 °F 37.4 °F 30.2 in North 2.5 mph 5.8 mph 64% 0 in
14:14 49.5 °F 37.4 °F 30.2 in Calm   5.8 mph 63% 0 in
14:19 49.6 °F 37.4 °F 30.2 in Calm   6 mph 62% 0 in
14:24 49.6 °F 37.4 °F 30.2 in NNE 3.6 mph 6 mph 61% 0 in
14:29 49.8 °F 37.4 °F 30.2 in Calm   5.8 mph 61% 0 in
14:35 50 °F 37.4 °F 30.2 in NNW 3.6 mph 6.3 mph 61% 0 in
14:40 50.2 °F 37.4 °F 30.2 in Calm   6.3 mph 60% 0 in
14:45 50.4 °F 37.4 °F 30.2 in North 2.9 mph 5.4 mph 59% 0 in
14:50 50.5 °F 37.4 °F 30.2 in North 2.2 mph 6.3 mph 59% 0 in
14:55 50.7 °F 37.4 °F 30.2 in Calm   6.3 mph 59% 0 in
15:00 50.7 °F 37.4 °F 30.2 in Calm   5.4 mph 58% 0 in
15:05 50.9 °F 37.4 °F 30.2 in NE 2.2 mph 2.9 mph 58% 0 in
15:10 51.3 °F 37.4 °F 30.2 in Calm   2.9 mph 57% 0 in
15:15 51.3 °F 37.4 °F 30.2 in Calm   2.5 mph 57% 0 in
15:20 51.3 °F 35.6 °F 30.2 in Calm   1.6 mph 56% 0 in
15:25 51.4 °F 35.6 °F 30.2 in Calm   3.4 mph 56% 0 in
15:30 51.6 °F 37.4 °F 30.2 in Calm   3.4 mph 56% 0 in
15:35 51.4 °F 35.6 °F 30.2 in NE 3.6 mph 4 mph 55% 0 in
15:40 51.4 °F 35.6 °F 30.2 in Calm   4.3 mph 54% 0 in
15:45 51.3 °F 35.6 °F 30.1 in Calm   4.3 mph 54% 0 in
15:50 51.3 °F 35.6 °F 30.1 in Calm   2.2 mph 54% 0 in
15:55 51.3 °F 35.6 °F 30.1 in ENE 3.1 mph 4 mph 54% 0 in
16:00 50.9 °F 35.6 °F 30.1 in Calm   4.7 mph 53% 0 in
16:02 50.9 °F 35.6 °F 30.1 in Calm   4.7 mph 53% 0 in
16:07 50.7 °F 33.8 °F 30.1 in Calm   3.8 mph 53% 0 in
16:12 50.7 °F 33.8 °F 30.1 in Calm   3.8 mph 53% 0 in
16:17 50.5 °F 33.8 °F 30.1 in Calm     52% 0 in
16:22 50.5 °F 33.8 °F 30.1 in Calm   3.8 mph 53% 0 in
16:28 50.5 °F 33.8 °F 30.1 in Calm   3.8 mph 53% 0 in
16:33 50.4 °F 33.8 °F 30.2 in Calm     53% 0 in
16:38 50.2 °F 33.8 °F 30.2 in Calm     53% 0 in
16:43 49.8 °F 33.8 °F 30.2 in Calm   2 mph 54% 0 in
16:48 49.5 °F 33.8 °F 30.2 in Calm   2 mph 54% 0 in
16:53 49.3 °F 33.8 °F 30.2 in Calm   1.1 mph 54% 0 in
16:58 48.9 °F 33.8 °F 30.2 in Calm   1.1 mph 54% 0 in
17:03 48.7 °F 33.8 °F 30.2 in Calm     54% 0 in
17:08 48.6 °F 33.8 °F 30.2 in Calm     55% 0 in
17:13 48.4 °F 33.8 °F 30.2 in Calm     55% 0 in
17:18 48.2 °F 33.8 °F 30.2 in Calm     55% 0 in
17:23 48 °F 33.8 °F 30.2 in Calm     56% 0 in
17:28 47.7 °F 32 °F 30.2 in Calm     55% 0 in
17:33 47.5 °F 32 °F 30.2 in Calm     55% 0 in
17:38 47.3 °F 32 °F 30.2 in Calm     55% 0 in
17:43 47.1 °F 32 °F 30.2 in Calm     55% 0 in
17:48 46.6 °F 32 °F 30.2 in Calm     55% 0 in
17:54 45.9 °F 30.2 °F 30.2 in Calm     56% 0 in
17:59 45.1 °F 30.2 °F 30.2 in Calm     57% 0 in
18:04 44.4 °F 30.2 °F 30.2 in Calm     58% 0 in
18:09 43.7 °F 30.2 °F 30.2 in Calm     58% 0 in
18:14 42.8 °F 30.2 °F 30.2 in Calm     59% 0 in
18:19 42.3 °F 30.2 °F 30.2 in Calm     60% 0 in
18:24 41.4 °F 28.4 °F 30.2 in Calm     61% 0 in
18:29 40.8 °F 30.2 °F 30.2 in Calm     64% 0 in
18:34 40.6 °F 30.2 °F 30.2 in Calm     65% 0 in
18:39 40.6 °F 30.2 °F 30.2 in NNW 0.9 mph 2.2 mph 66% 0 in
18:44 40.6 °F 30.2 °F 30.2 in Calm   2.2 mph 67% 0 in
18:49 40.8 °F 32 °F 30.2 in Calm   2 mph 68% 0 in
18:54 41 °F 32 °F 30.2 in Calm     68% 0 in
18:59 40.6 °F 30.2 °F 30.2 in North 2.5 mph 3.1 mph 69% 0 in
19:05 40.5 °F 30.2 °F 30.2 in NNE 3.4 mph 4 mph 69% 0 in
19:10 40.8 °F 32 °F 30.2 in North 1.6 mph 4 mph 70% 0 in
19:15 41 °F 33.8 °F 30.2 in Calm   4 mph 71% 0 in
19:20 41.2 °F 33.8 °F 30.2 in North 2 mph 3.6 mph 72% 0 in
19:25 41 °F 33.8 °F 30.2 in North 3.1 mph 4.7 mph 72% 0 in
19:30 40.8 °F 33.8 °F 30.2 in NNW 1.1 mph 4.7 mph 73% 0 in
19:35 40.6 °F 33.8 °F 30.2 in Calm   4 mph 74% 0 in
19:40 40.3 °F 33.8 °F 30.2 in Calm   3.6 mph 74% 0 in
19:45 39.9 °F 32 °F 30.2 in Calm     74% 0 in
19:50 39.7 °F 33.8 °F 30.2 in Calm   2.2 mph 75% 0 in
19:55 39.4 °F 32 °F 30.2 in Calm   2.2 mph 75% 0 in
20:00 38.8 °F 32 °F 30.2 in Calm     76% 0 in
20:05 38.3 °F 32 °F 30.2 in Calm     76% 0 in
20:10 37.9 °F 32 °F 30.2 in Calm     76% 0 in
20:15 37 °F 30.2 °F 30.2 in Calm     76% 0 in
20:20 36.5 °F 30.2 °F 30.2 in Calm     77% 0 in
20:25 35.8 °F 30.2 °F 30.2 in Calm     77% 0 in
20:30 35.4 °F 30.2 °F 30.2 in Calm     78% 0 in
20:35 34.9 °F 28.4 °F 30.2 in Calm     78% 0 in
20:40 34.5 °F 28.4 °F 30.2 in Calm   0.9 mph 78% 0 in
20:46 34.5 °F 28.4 °F 30.2 in Calm   0.9 mph 78% 0 in
20:52 34.3 °F 28.4 °F 30.2 in Calm     79% 0 in
20:57 34.3 °F 30.2 °F 30.2 in Calm     80% 0 in
21:02 34.2 °F 30.2 °F 30.2 in Calm     81% 0 in
21:07 34 °F 28.4 °F 30.2 in Calm     81% 0 in
21:12 34 °F 30.2 °F 30.2 in Calm     82% 0 in
21:17 33.8 °F 30.2 °F 30.2 in Calm     82% 0 in
21:22 33.4 °F 30.2 °F 30.2 in Calm     82% 0 in
21:27 33.3 °F 28.4 °F 30.2 in Calm     83% 0 in
21:32 33.1 °F 28.4 °F 30.2 in Calm     83% 0 in
21:37 32.5 °F 28.4 °F 30.2 in Calm     83% 0 in
21:42 32.2 °F 28.4 °F 30.2 in Calm     83% 0 in
21:47 31.6 °F 26.6 °F 30.2 in Calm     83% 0 in
21:52 31.5 °F 24.8 °F 30.2 in Calm     83% 0 in
21:57 31.3 °F 24.8 °F 30.2 in Calm     83% 0 in
22:02 30.9 °F 24.8 °F 30.2 in Calm     84% 0 in
22:07 30.2 °F 24.8 °F 30.2 in Calm     84% 0 in
22:12 30 °F 24.8 °F 30.2 in Calm     84% 0 in
22:17 30.2 °F 24.8 °F 30.2 in Calm     85% 0 in
22:22 30.4 °F 24.8 °F 30.2 in Calm     85% 0 in
22:28 30.2 °F 24.8 °F 30.2 in Calm     86% 0 in
22:33 30.4 °F 24.8 °F 30.2 in Calm     85% 0 in
22:38 30.2 °F 24.8 °F 30.2 in Calm     86% 0 in
22:43 30.2 °F 24.8 °F 30.2 in Calm     86% 0 in
22:48 30.2 °F 24.8 °F 30.2 in Calm     86% 0 in
22:53 30 °F 24.8 °F 30.2 in Calm     86% 0 in
22:58 30 °F 26.6 °F 30.2 in Calm     87% 0 in
23:03 30 °F 26.6 °F 30.2 in Calm     87% 0 in
23:08 30 °F 26.6 °F 30.2 in Calm     87% 0 in
23:13 30 °F 26.6 °F 30.2 in Calm     87% 0 in
23:18 29.8 °F 24.8 °F 30.2 in Calm     87% 0 in
23:23 29.7 °F 24.8 °F 30.2 in Calm     88% 0 in
23:28 29.5 °F 24.8 °F 30.2 in Calm     88% 0 in
23:33 29.3 °F 24.8 °F 30.2 in Calm     88% 0 in
23:38 28.9 °F 24.8 °F 30.2 in Calm     87% 0 in
23:43 28.9 °F 24.8 °F 30.2 in Calm     88% 0 in
23:48 29.3 °F 24.8 °F 30.2 in Calm     88% 0 in
23:53 30.2 °F 26.6 °F 30.2 in Calm     89% 0 in
23:58 30.4 °F 26.6 °F 30.2 in Calm     89% 0 in
Données Historique de Météo Turbie

Mise a jour : 18/06/2018 07:45:12
Généré par Cumulus 1.9.4 (1099)